Kezdőlap
METAR-TAF:

METAR-TAF

Repülőterek :

Vinton Veterans Memorial Airpark

Vinton, Iowa, Amerikai Egyesült Államok

földrajzi szélesség: 42-13-07N, földrajzi hosszúság: 092-01-33W, magasság: 258 m

Jelenlegi meteorológiai megfigyelések

A jelentés 28 perccel ezelõtt készült, 07:15 UTC
Szélcsend
Hőmérséklet 23°C
Páratartalom 100%
Légköri nyomás 1016 hPa
Látótávolság: 16.1 km
Szakadozott felhőzet 3000 lábon

METAR: KVTI 070715Z AUTO 00000KT 10SM BKN030 23/23 A3000 RMK AO2 T02300230

Idő: 02:43 (07:43 UTC)


TAF: hiányzik

Meteorológiai megfigyelések és előrejelzések több, mint 4000 repülőtéren (METAR és TAF jelentéseket).

A térképen piros és sárga pontok jelzik az elérhető meteorológiai állomásokat.

Mozgassa az egeret a pont fölött, hogy megjelenjen az állomás neve.

Azután kattintson az időjárási megfigyelések és előrejelzések megtekintéséhez.

A térkép megváltoztatása: kattintson a fekete keresztel jelölt zöld gombra ráközelítéshez, a vonallal jelölt zöld gombra távolításhoz, vagy a zöld nyilakra a szomszédos térképek eléréséhez.


METAR-TAF: